Location: Cochran - Bleckley Fire Department Salem Station
(32.4685°N, 83.2447°W)
Time: 05:50:17
(UTC+00:00)

Daily predictions for brighter satellites

Satellite Brightness Start Highest point End
(mag) Time Altitude Azimuth Time Altitude Azimuth Time Altitude Azimuth
STARLINK-1078 4.5 01:00:04 10° NNW 01:03:58 38° NE 01:07:50 10° ESE
MOS 1 Rocket 3.2 01:04:08 10° NNE 01:08:19 52° E 01:12:30 10° S
STARLINK-1108 4.3 01:05:00 10° NNW 01:08:58 43° NE 01:12:54 10° ESE
Tsikada Rocket 4.4 01:03:21 10° SSW 01:09:28 67° W 01:15:36 10° N
ARGOS 3.2 01:07:37 10° SSE 01:12:59 76° ENE 01:18:22 10° N
BREEZE-M DEB (TANK) 2.4 01:11:32 10° NW 01:13:49 63° NE 01:16:26 11° SE
STARLINK-1071 4.2 01:09:57 10° NNW 01:13:58 47° NE 01:17:54 10° ESE
Okean 2 Rocket 3.9 01:10:25 10° NNE 01:14:24 33° E 01:18:20 10° SE
Cosmos 1437 Rocket 3.5 01:11:28 10° SSE 01:14:49 31° E 01:18:13 10° NNE
Sich 1 Rocket 3.7 01:11:27 10° N 01:15:59 62° E 01:20:27 10° SSE
SWIFT 4.2 01:14:01 10° SW 01:16:41 16° S 01:19:22 10° SE
ASTEX 1 3.4 01:12:16 10° S 01:17:09 85° E 01:22:06 10° N
STARLINK-1110 4.0 01:13:24 10° NW 01:17:27 51° NE 01:21:14 11° ESE
Cosmos 304 Rocket 3.8 01:13:46 10° S 01:18:27 61° ESE 01:23:10 10° NNE
STARLINK-60 4.1 01:15:28 10° WSW 01:18:31 47° NW 01:21:35 10° NNE
CZ-2C R/B 2.9 01:13:04 10° NNE 01:18:34 55° E 01:23:59 10° S
ASTRO E2 2.7 01:16:15 10° W 01:20:12 72° S 01:24:03 11° ESE
Resurs 01 Rocket 3.2 01:17:14 10° ESE 01:20:23 19° ENE 01:23:33 10° NNE
Cosmos 1943 Rocket 3.0 01:15:50 10° SSE 01:20:26 28° ESE 01:25:05 10° NE
SPOT 3 Rocket 4.3 01:16:20 10° SE 01:20:59 36° ENE 01:25:40 10° N
Cosmos 676 Rocket 4.1 01:15:56 10° NNW 01:21:14 84° WSW 01:26:32 10° SSE
STARLINK-1124 3.9 01:19:50 10° NW 01:23:56 60° NE 01:27:28 13° ESE
Cosmos 1300 Rocket 4.2 01:20:27 10° NNE 01:24:35 37° E 01:28:27 11° SSE
Okean 3 3.6 01:21:36 10° S 01:25:53 82° W 01:30:13 10° N
Abrixas rocket 4.4 01:24:20 10° N 01:26:07 15° NNE 01:27:54 10° ENE
H-2A R/B 2.6 01:22:39 10° S 01:27:37 59° W 01:32:45 10° NNW
STARLINK-1122 3.7 01:24:47 10° NW 01:28:54 67° NE 01:32:15 15° SE
NOSS 2-2 (D) 3.5 01:25:24 10° SW 01:29:00 67° WNW 01:32:37 10° NNE
Cosmos 2151 Rocket 4.4 01:26:05 10° NNE 01:30:13 34° E 01:33:37 14° SE
STARLINK-1126 3.6 01:29:26 10° NW 01:33:34 75° NE 01:36:43 17° SE
Resurs 1-3 4.2 01:30:25 13° SE 01:34:02 41° ENE 01:38:09 10° N
Orbus 7S 3.8 01:32:02 10° WSW 01:34:36 37° S 01:38:20 13° ESE
SL-4 R/B 2.9 01:34:43 10° NW 01:37:07 26° WSW 01:39:21 10° S
Cosmos 1833 Rocket 3.0 01:32:02 10° NNW 01:37:37 69° WSW 01:43:10 10° S
BREEZE-M DEB 3.0 01:36:34 10° WSW 01:38:42 41° NW 01:41:04 10° NE
STARLINK-1444 4.5 01:36:56 10° WSW 01:38:43 24° NW 01:40:28 10° NNE
STARLINK-1082 3.6 01:34:43 10° NW 01:38:52 84° NE 01:41:50 18° SE
FREGAT/IRIS 3.7 01:36:57 10° SSW 01:39:25 35° W 01:41:54 10° NNW
Cosmos 1674 Rocket 3.8 01:36:11 10° SSE 01:40:23 50° E 01:44:39 10° NNE
Cosmos 1378 Rocket 4.2 01:36:55 12° SSE 01:40:34 36° E 01:44:35 10° NNE
Cosmos 2142 Rocket 4.5 01:36:40 10° N 01:42:50 71° E 01:49:03 10° SSE
STARLINK-1100 3.6 01:39:40 10° NW 01:43:50 86° SW 01:46:35 20° SE
Cosmos 2297 4.1 01:39:16 10° SSW 01:44:52 68° WNW 01:50:35 10° NNE
NOSS 3-4 (A) 4.2 01:43:37 10° SSE 01:48:27 27° ESE 01:53:22 10° NE
NOSS 3-4 (C) 4.2 01:43:45 10° SSE 01:48:33 26° ESE 01:53:27 10° NE
STARLINK-1083 3.6 01:44:39 10° NW 01:48:47 77° SW 01:51:21 22° SE
Meteor 1-12 Rocket 4.2 01:44:24 10° N 01:50:08 83° E 01:55:41 11° S
STARLINK-29 3.8 01:47:27 10° WSW 01:50:36 53° NW 01:53:46 10° NE
Cosmos 2279 Rocket 4.0 01:45:58 10° N 01:52:10 70° E 01:57:37 14° SSE
Cosmos 2369 Rocket 2.7 01:47:29 10° S 01:52:41 38° ESE 01:57:52 10° NE
Cosmos 2082 Rocket 2.2 01:47:59 10° NNW 01:53:43 86° WSW 01:58:17 16° SSE
STARLINK-1125 3.7 01:49:38 10° NW 01:53:45 68° SW 01:56:09 24° SSE
USA 186 4.2 01:54:19 10° SW 01:56:06 16° W 01:57:57 10° NW
ISS -2.7 01:53:21 10° WNW 01:56:29 37° SW 01:58:06 22° S
STARLINK-1109 3.9 01:54:37 10° NW 01:58:42 60° SW 02:00:55 25° SSE
STARLINK-1091 4.1 01:59:38 10° NW 02:03:40 53° SW 02:05:42 26° SSE
Cosmos 1378 3.7 02:02:56 32° ESE 02:03:46 37° E 02:07:11 10° NNE
USA 267 4.3 01:58:05 11° S 02:03:51 37° SW 02:09:51 10° WNW
SJ-6B 4.4 02:01:04 10° SSW 02:04:22 31° W 02:07:42 10° NW
Cosmos 1975 Rocket 4.4 02:05:35 22° E 02:05:49 22° E 02:09:14 10° NE
H-2A ROCKET BODY 3.4 02:03:28 10° SW 02:07:46 39° SE 02:23:31 10° E
STARLINK-1072 4.3 02:04:41 10° NW 02:08:40 47° SW 02:10:31 27° S
Sakura Rocket 4.2 02:03:52 10° W 02:09:24 55° S 02:13:42 25° ESE
Lacrosse 5 2.9 02:06:12 10° NW 02:10:51 38° WSW 02:13:58 19° S
STARLINK-1096 4.4 02:09:41 10° WNW 02:13:35 41° SW 02:15:16 27° S
Cosmos 1805 4.5 02:11:36 10° NNE 02:14:52 25° ENE 02:14:57 25° E
ATLAS 2AS CENTAUR R/B 3.1 02:08:09 10° S 02:15:43 56° ESE 02:23:29 10° NE
Meteor 1-23 Rocket 4.3 02:11:30 10° S 02:17:12 80° W 02:22:51 10° N
Cosmos 1066 Rocket 4.2 02:14:05 10° S 02:19:28 78° W 02:24:49 10° N
Cosmos 1842 4.5 02:25:34 27° ENE 02:25:34 27° ENE 02:28:14 10° NNE
Cosmos 1092 Rocket 4.1 02:22:30 30° SSE 02:25:19 52° E 02:31:14 10° NNE
STARLINK-1103 4.4 02:21:59 10° NNW 02:25:54 41° NE 02:26:57 34° E
SAR-Lupe-2 3.5 02:22:35 10° NNE 02:26:09 61° ESE 02:26:18 60° ESE
COSMOS 2455 3.5 02:30:26 33° ESE 02:30:33 33° ESE 02:35:49 10° NE
STARLINK-1101 4.2 02:26:54 10° NNW 02:30:53 46° NE 02:31:43 39° ENE
H-2A R/B 4.1 02:29:03 10° SW 02:31:36 16° S 02:31:36 16° S
Milstar 3 Cent rocket 3.6 02:26:07 10° SW 02:33:12 56° SSE 02:48:15 10° E
STARLINK-1102 4.0 02:31:52 10° NNW 02:35:54 51° NE 02:36:32 46° ENE
Spot 2 Rocket 3.5 02:35:31 45° SE 02:36:55 64° ENE 02:41:54 10° N
USA 238 DEB 4.3 02:31:49 10° NNW 02:38:53 50° NE 02:42:03 32° ESE
USA 238 4.3 02:31:56 10° NNW 02:39:00 50° NE 02:42:09 32° ESE
Okean 1 Rocket 3.0 02:36:05 10° N 02:40:31 81° W 02:41:35 51° S
GPS 2-04 Rocket1 3.2 02:37:27 10° W 02:40:07 40° WSW 02:40:07 40° WSW
STARLINK-1111 3.8 02:36:49 10° NW 02:40:54 57° NE 02:41:19 54° ENE
STARLINK-1378 4.4 02:44:47 36° NE 02:44:47 36° NE 02:47:13 10° NE
Meteor 1-22 Rocket 4.4 02:38:32 10° N 02:44:05 49° E 02:45:04 44° ESE
STARLINK-1073 3.7 02:41:45 10° NW 02:45:53 64° NE 02:46:05 63° ENE
SPOT 5 3.9 02:46:23 33° E 02:47:00 35° ENE 02:51:48 10° N
STARLINK-1379 4.3 02:48:53 41° NE 02:48:53 41° NE 02:51:33 10° NE
IGS 5A 3.3 02:48:39 73° E 02:48:46 74° ENE 02:52:55 10° N
STARLINK-1121 3.6 02:46:42 10° NW 02:50:50 72° NE 02:50:51 72° NE
STARLINK-1329 4.2 02:52:05 45° NE 02:52:05 45° NE 02:54:55 10° NE
SL-27 R/B 4.0 02:48:38 10° N 02:50:47 27° NE 02:50:47 27° NE
Cosmos 2263 4.1 02:48:43 23° SSW 02:52:16 85° WNW 02:57:54 10° NNE
ATLAS CENTAUR R/B 1.4 02:52:16 53° SSW 02:53:17 86° WNW 02:57:34 10° NNE
Okean 2 3.4 02:54:11 70° SW 02:54:32 76° W 02:58:41 10° N
Terra 3.1 02:55:01 27° ENE 02:55:01 27° ENE 02:58:46 10° NNE
STARLINK-1362 3.9 02:56:04 56° NNE 02:56:04 56° NNE 02:59:17 10° NE
STARLINK-1106 3.6 02:51:41 10° NW 02:55:39 78° N 02:55:39 78° N
Resurs 01 Rocket 3.2 02:54:43 22° SW 02:56:37 30° W 03:00:32 10° NW
Meteor 2-13 Rocket 4.4 02:56:30 51° SE 02:57:52 64° E 03:03:58 10° NNE
STARLINK-1373 4.0 03:00:25 54° NNE 03:00:25 54° NNE 03:03:38 10° NE
ASTRO E2 4.4 02:56:50 10° W 02:58:52 24° WSW 02:58:52 24° WSW
STARLINK-1112 3.7 02:56:39 10° NW 03:00:26 74° NW 03:00:26 74° NW
Abrixas rocket 4.4 02:58:56 10° WNW 03:00:09 21° WNW 03:00:09 21° WNW
Cosmos 1242 Rocket 3.9 03:04:40 35° NNE 03:04:40 35° NNE 03:06:54 10° NNE
Cosmos 1943 Rocket 3.9 02:59:08 10° SW 03:04:00 31° WNW 03:08:56 10° N
STARLINK-1390 4.0 03:04:35 56° N 03:04:35 56° N 03:08:00 10° NE
Cosmos 2026 Rocket 3.9 03:02:16 48° S 03:04:12 82° E 03:10:34 10° N
SPOT 1/Viking Rocket 3.4 03:03:35 68° SSE 03:04:16 86° ENE 03:09:26 10° NNW
STARLINK-1128 3.9 03:01:37 10° NW 03:05:13 65° WNW 03:05:13 65° WNW
STARLINK-1365 4.1 03:07:35 49° W 03:08:13 56° NW 03:12:11 10° NE
STARLINK-1113 4.1 03:06:38 10° NW 03:10:01 55° WNW 03:10:01 55° WNW
STARLINK-1119 4.4 03:11:37 10° NW 03:14:47 47° WNW 03:14:47 47° WNW
CENTAUR R/B 3.6 03:08:21 10° NNW 03:16:31 54° NE 03:19:26 40° ESE
Cosmos 1766 4.1 03:13:44 10° NNW 03:17:08 47° WNW 03:17:08 47° WNW
Cosmos 1486 Rocket 4.1 03:13:06 10° N 03:18:10 61° ENE 03:18:10 61° ENE
Cosmos 1553 Rocket 4.4 03:15:37 10° N 03:21:32 45° E 03:21:34 45° E
Cosmos 1992 Rocket 4.0 03:21:19 66° WSW 03:21:54 73° WNW 03:27:07 10° NNE
ATLAS 3B R/B 4.1 03:18:02 10° N 03:23:34 25° NE 03:25:46 22° ENE
Cosmos 1656 Rocket 3.9 03:22:48 41° SW 03:24:39 64° WNW 03:30:12 10° NNE
Meteor 1-21 4.3 03:25:54 61° SW 03:26:45 72° W 03:32:21 10° N
Cosmos 2369 Rocket 4.3 03:32:14 10° WSW 03:36:44 24° WNW 03:41:15 10° N
NOSS 3-2 (C) 4.1 03:29:13 10° NNW 03:37:12 79° ENE 03:39:06 58° SE
ERS-1 Rocket 3.3 03:39:13 57° W 03:39:13 57° W 03:43:54 10° NNW
Cosmos 1655 Rocket 4.0 03:40:04 65° ENE 03:40:04 65° ENE 03:46:00 10° NNE
ATLAS 3B CENTAUR R/B 3.1 03:26:47 10° W 03:41:31 63° SSW 03:42:25 60° SSE
Cosmos 1025 Rocket 4.3 03:45:13 37° N 03:45:13 37° N 03:47:54 10° N
BREEZE-M DEB (TANK) 3.4 03:36:48 10° NW 03:44:42 63° NE 03:44:45 62° NE
Cosmos 1867 4.0 03:53:07 10° NNW 03:57:37 56° N 03:57:37 56° N
Cosmos 968 Rocket 4.1 03:53:50 10° NNW 03:57:51 52° NW 03:57:51 52° NW
ATLAS 5 CENTAUR R/B 3.8 03:51:53 10° SW 04:00:08 36° WNW 04:03:13 10° N
COSMOS 2455 4.3 04:13:27 21° WSW 04:16:22 32° WNW 04:21:43 10° N
Thor Agena Rocket 4.4 04:19:19 10° N 04:23:11 49° N 04:23:11 49° N
Terra 3.9 04:33:54 21° WNW 04:33:54 21° WNW 04:36:17 10° NW
SeaSat 1 3.8 04:47:04 10° NNE 04:50:08 36° N 04:50:08 36° N
Cosmos 2297 Rocket 3.9 04:49:25 10° N 04:53:23 24° NE 04:53:23 24° NE
Cosmos 2315 Rocket 4.4 04:53:10 10° N 04:58:03 57° NNW 04:58:03 57° NNW
CENTAUR R/B 4.1 04:59:38 10° NW 05:06:37 34° WSW 05:06:37 34° WSW
Cosmos 1697 Rocket 4.3 05:15:47 28° NE 05:15:47 28° NE 05:18:34 10° NNE
ATLAS 3B R/B 3.3 05:07:50 10° NW 05:13:00 48° WNW 05:13:00 48° WNW
Cosmos 2227 Rocket 3.4 05:26:23 10° N 05:30:28 37° NNE 05:30:28 37° NNE
FALCON 9 R/B 3.3 05:53:12 53° E 05:53:12 53° E 06:04:17 10° E
Lacrosse 4 Rocket 4.1 05:50:39 10° N 05:52:03 17° NNE 05:52:03 17° NNE
CZ-4C R/B 3.6 06:00:10 30° NNW 06:00:10 30° NNW 06:04:02 10° NNE
CZ-2D R/B 4.4 05:58:41 10° NE 06:00:29 15° ENE 06:00:29 15° ENE
BREEZE M DEB (TANK) 4.2 06:06:26 77° SE 06:06:33 77° SE 06:30:21 10° NE
Cosmos 1980 Rocket 3.1 06:12:34 44° NNE 06:12:34 44° NNE 06:16:22 10° NNE
SJ 16-02 3.8 06:11:36 10° NNW 06:12:52 19° NNW 06:12:52 19° NNW
Cosmos 2181 Rocket 4.4 06:23:47 10° N 06:29:52 56° ENE 06:29:52 56° ENE
Cosmos 2263 Rocket 4.5 06:31:14 10° NNE 06:35:02 18° ENE 06:38:19 12° E
USA 215 3.6 06:35:30 43° E 06:37:33 61° NE 06:43:59 10° NW
Cosmos 2297 Rocket 3.9 06:32:51 10° NW 06:35:10 23° NW 06:35:10 23° NW
SL-16 R/B 3.7 06:39:30 32° E 06:41:00 36° ENE 06:46:32 10° N
ADEOS II 4.3 06:41:08 10° ENE 06:44:11 15° E 06:44:20 15° E
Cosmos 2322 Rocket 3.4 06:49:46 34° E 06:49:46 34° E 06:54:04 10° NE
Cosmos 2285 Rocket 4.3 06:58:31 10° NNW 07:03:43 56° NW 07:03:43 56° NW
Cosmos 2150 Rocket 4.5 07:04:28 10° N 07:09:09 55° NE 07:09:09 55° NE
Resurs 1-4 Rocket 2.3 07:08:25 10° NNE 07:13:02 68° N 07:13:02 68° N
Cosmos 2227 Rocket 4.4 07:11:26 10° NW 07:12:15 13° WNW 07:12:15 13° WNW
Meteor 1-27 4.4 07:10:32 10° N 07:16:04 65° E 07:16:09 65° E
SL-16 R/B 2.1 07:24:07 82° N 07:24:07 82° N 07:29:33 10° NNE
Cosmos 2074 Rocket 4.0 07:24:26 65° W 07:24:26 65° W 07:30:39 10° N
Cosmos 1125 Rocket 4.3 07:20:27 10° N 07:25:28 47° ENE 07:26:35 41° ESE
Cosmos 2298 Rocket 4.3 07:30:50 10° NNW 07:35:12 57° NW 07:35:12 57° NW
CZ-2D R/B 2.6 07:37:12 10° N 07:41:49 45° WNW 07:41:49 45° WNW
BREEZE-M DEB (TANK) 3.8 07:41:43 39° WNW 07:42:47 46° NNW 07:53:37 10° NE
IRIDIUM 104 4.4 07:42:20 61° SE 07:42:56 67° E 07:48:06 10° N
Cosmos 2360 Rocket 2.4 07:46:14 53° SE 07:47:05 60° ESE 07:52:37 10° NNE
STARLINK-1015 4.2 07:52:00 52° ENE 07:52:00 52° ENE 07:55:19 10° NE
IRIDIUM 114 4.2 07:51:28 70° SSE 07:52:03 84° E 07:57:17 10° N
Cosmos 1076 Rocket 3.6 07:55:10 69° NNW 07:55:10 69° NNW 07:59:06 10° N
Cosmos 1980 Rocket 4.4 07:54:20 12° WNW 07:55:20 12° NW 07:57:29 10° NNW
Cosmos 1892 3.6 07:56:58 44° NNW 07:56:58 44° NNW 07:59:42 10° N
STARLINK-1016 4.0 07:56:46 61° ENE 07:56:46 61° ENE 08:00:18 10° NE
Cosmos 783 Rocket 4.3 07:55:42 73° SSW 07:56:15 89° WNW 08:01:34 10° NNE
Cosmos 2333 Rocket 3.9 07:55:20 17° SE 07:58:09 24° ESE 08:02:36 10° NE
Cosmos 2151 4.0 07:58:02 36° ESE 07:58:49 40° E 08:02:50 10° NNE
STARLINK-1008 3.7 08:01:34 71° ENE 08:01:34 71° ENE 08:05:18 10° NE
IRIDIUM 103 4.2 08:00:37 68° SSW 08:01:13 79° W 08:06:26 10° N
STARLINK-24 4.0 08:01:58 57° N 08:01:58 57° N 08:05:30 10° NE
CBERS-1 4.0 07:57:04 10° N 08:02:08 62° WNW 08:02:33 60° W
SL-8 Rocket 4.4 08:00:18 30° SSE 08:03:21 60° E 08:09:30 10° NNE
Cosmos 1869 4.1 07:59:41 10° NNW 08:02:21 41° NNW 08:02:21 41° NNW
Cosmos 2219 Rocket 3.8 08:02:25 16° SE 08:05:26 26° ESE 08:09:58 10° NE
STARLINK-1014 3.6 08:06:23 78° NNE 08:06:23 78° NNE 08:10:15 10° NE
Lacrosse 5 rocket 3.3 08:09:53 19° SE 08:10:21 19° ESE 08:13:14 10° ENE
STARLINK-1025 3.5 08:11:08 77° NW 08:11:08 77° NW 08:15:15 10° NE
STARLINK-25 4.2 08:14:07 37° NNW 08:14:07 37° NNW 08:16:53 10° NNE
STARLINK-1017 3.6 08:15:54 67° WNW 08:16:04 68° NW 08:20:12 10° NE
ATLAS 5 CENTAUR R/B 4.0 08:16:51 10° SE 08:18:01 11° ESE 08:19:12 10° E
Cosmos 2263 Rocket 2.3 08:13:50 10° NNW 08:19:12 50° WSW 08:19:55 47° SW
Cosmos 962 Rocket 4.5 08:18:04 43° SW 08:19:54 62° W 08:26:02 10° N
SL-19 R/B 4.0 08:16:09 10° NNE 08:20:11 82° ESE 08:20:22 78° SSE
USA 215 4.3 08:22:46 25° W 08:22:46 25° W 08:26:16 10° WNW
STARLINK-1023 3.7 08:20:41 58° WNW 08:21:03 61° NW 08:25:08 10° NE
ADEOS II 2.4 08:19:01 10° N 08:24:05 50° WNW 08:25:17 41° WSW
SL-16 R/B 3.4 08:24:35 29° W 08:24:35 29° W 08:29:47 10° NW
STARLINK-1007 3.9 08:25:30 49° WNW 08:26:03 54° NW 08:30:07 10° NE
STARLINK-81 4.3 08:26:24 33° NW 08:26:37 34° NW 08:29:56 10° NNE
IDEFIX/ARIANE 42P 3.2 08:24:00 10° NNE 08:29:07 51° E 08:32:34 20° S
STARLINK-77 4.4 08:29:34 31° NW 08:29:55 31° NW 08:33:11 10° NNE
STARLINK-1048 4.1 08:30:16 42° WNW 08:31:02 48° NW 08:35:03 10° NNE
Cosmos 1408 3.3 08:31:51 38° WNW 08:31:51 38° WNW 08:34:58 10° N
IRS-1D 4.5 08:27:11 10° N 08:31:44 31° WNW 08:32:45 29° W
Cosmos 2221 3.9 08:28:23 10° NNW 08:31:16 25° WNW 08:31:16 25° WNW
Cosmos 1825 2.0 08:32:28 63° WSW 08:32:43 65° W 08:36:28 10° N
Cosmos 2322 Rocket 3.4 08:31:35 23° W 08:33:02 25° WNW 08:37:39 10° N
STARLINK-1049 4.3 08:35:03 36° W 08:36:02 43° NW 08:40:00 10° NNE
ARIANE 5 R/B 2.6 08:34:52 10° N 08:39:47 59° WNW 08:41:40 35° SW
SL-16 Debris 4.3 08:40:27 27° SE 08:40:27 27° SE 08:42:47 10° ESE
Meteor 2-12 Rocket 4.4 08:36:35 24° S 08:40:25 90° E 08:46:30 10° N
STARLINK-1051 4.5 08:39:48 31° W 08:41:00 39° NW 08:44:54 10° NNE
SL-24 DEB 4.1 08:38:05 10° N 08:42:40 73° W 08:44:43 32° SSW
STARLINK-1034 4.4 08:51:29 27° S 08:53:19 44° SE 08:57:15 10° ENE
Cosmos 2366 rocket 4.0 08:50:31 23° SSW 08:54:29 64° W 09:00:44 10° N
Cosmos 1340 4.3 08:51:55 10° SSE 08:55:17 32° E 08:58:40 10° NNE
Delta 2 Rocket 4.2 08:52:38 27° SW 08:55:37 46° S 09:01:18 10° ESE
STARLINK-1068 4.2 08:56:15 26° SSW 08:58:15 50° SE 09:02:15 10° NE
CZ-3A R/B 4.0 08:54:52 13° S 08:58:36 22° SE 09:08:48 10° E
GEOS 3 Rocket 3.9 08:55:45 10° S 09:00:34 43° WSW 09:05:32 10° NW
Cosmos 1933 4.2 08:56:41 10° N 09:00:37 51° E 09:04:31 10° SSE
CZ-4C R/B 3.2 08:57:03 10° SSE 09:00:39 75° ENE 09:04:17 10° N
Cosmos 2237 Rocket 4.1 08:56:24 10° SSE 09:01:00 26° ESE 09:05:37 10° NE
Landsat 5 4.0 08:56:46 10° SSE 09:01:14 68° ENE 09:05:41 10° N
MSX 4.0 08:55:33 10° NNE 09:01:18 73° ESE 09:06:56 10° S
BREEZE-M TANK 2.8 09:00:19 25° SSW 09:02:04 46° SE 09:04:57 10° ENE
STARLINK-1027 4.0 09:01:04 25° SSW 09:03:14 56° SE 09:07:18 10° NE
COBE Rocket 4.3 09:02:52 19° SSW 09:06:10 44° W 09:11:04 10° NNW
STARLINK-1060 3.8 09:05:49 24° SSW 09:08:10 64° SE 09:12:16 10° NE
SL-16 R/B 4.4 09:08:03 10° WNW 09:08:44 10° NW 09:09:25 10° NW
COSMOS 2428 2.7 09:06:24 17° SSW 09:10:49 85° WNW 09:16:31 10° NNE
Cosmos 1500 Rocket 4.5 09:06:43 10° SSE 09:10:59 48° E 09:15:18 10° NNE
STARLINK-1030 3.7 09:10:36 22° SSW 09:13:09 72° SE 09:17:16 10° NE
Cosmos 1844 Rocket 2.7 09:08:34 10° NNW 09:14:11 88° ENE 09:19:44 10° SSE
Cosmos 1818 3.6 09:10:05 17° SSW 09:14:19 83° ESE 09:19:46 10° NNE
Cosmos 1821 Rocket 4.3 09:08:09 10° S 09:14:28 71° E 09:20:45 10° N
Cosmos 1408 Rocket 3.5 09:11:56 17° SSW 09:15:07 62° W 09:19:23 10° N
USA 229 DEB 4.5 09:10:19 10° NW 09:16:56 35° WSW 09:23:43 10° S
USA 229 4.4 09:10:24 10° NW 09:17:02 35° WSW 09:23:52 10° S
Meteor 1-28 Rocket 4.1 09:16:03 21° SW 09:17:40 29° W 09:20:58 10° NW
STARLINK-1020 3.6 09:15:24 21° SW 09:18:07 81° SE 09:22:16 10° NE
BREEZE-M R/B 3.7 09:17:37 15° SSW 09:20:35 37° SE 09:22:27 10° ENE
NOSS 0 Rocket 4.4 09:17:02 10° S 09:23:03 61° ESE 09:29:06 10° NNE
STARLINK-1052 3.6 09:20:10 19° SW 09:23:05 89° NW 09:27:14 10° NE
Iridium 4 Rocket 4.2 09:18:36 10° SSE 09:23:19 54° E 09:28:31 10° N
STARLINK-60 3.2 09:21:46 10° WNW 09:24:50 43° SW 09:27:52 10° SSE
Cosmos 1782 4.3 09:22:25 10° N 09:26:10 38° E 09:29:53 10° SSE
NOSS 3-1 (A) 4.4 09:18:43 10° NW 09:26:25 47° WSW 09:34:49 10° S
Cosmos 1727 Rocket 3.9 09:20:21 10° N 09:26:29 71° W 09:32:37 10° S
SL-4 R/B 2.2 09:21:54 10° NW 09:26:32 60° SW 09:30:51 10° SSE
PAYLOAD A 4.1 09:22:08 10° NNE 09:26:55 74° ESE 09:31:49 10° S
NOSS 3-3 (A) 4.2 09:21:55 10° SSW 09:27:28 63° ESE 09:33:32 10° NE
NOSS 3-3 (C) 4.2 09:22:01 10° SSW 09:27:34 62° ESE 09:33:39 10° NE
ERS-2 3.3 09:29:06 15° SW 09:31:09 24° W 09:34:09 10° NW
H-2A R/B 2.6 09:27:06 10° SSW 09:31:09 38° W 09:35:19 10° NNW
Cosmos 2360 Rocket 4.0 09:28:05 10° W 09:31:28 16° WNW 09:34:51 10° NNW
STARLINK-1033 3.7 09:29:45 15° SW 09:33:03 71° NW 09:37:11 10° NE
STARLINK-1444 2.6 09:30:56 10° WNW 09:33:12 40° SW 09:35:35 10° SSE
Cosmos 1606 3.2 09:30:09 10° NNW 09:33:40 38° W 09:37:12 10° SSW
STARLINK-1452 2.6 09:31:34 10° WNW 09:33:49 39° SW 09:36:12 10° SSE
STARLINK-1450 2.6 09:32:31 10° WNW 09:34:42 37° SW 09:37:01 10° SSE
STARLINK-1392 2.7 09:32:42 10° WNW 09:34:53 37° SW 09:37:13 10° SSE
STARLINK-1415 2.7 09:32:42 10° WNW 09:34:54 37° SW 09:37:13 10° SSE
STARLINK-1399 2.7 09:32:43 10° WNW 09:34:54 37° SW 09:37:14 10° SSE
STARLINK-1394 2.7 09:32:43 10° WNW 09:34:55 37° SW 09:37:15 10° SSE
STARLINK-1395 2.7 09:32:44 10° WNW 09:34:56 37° SW 09:37:15 10° SSE
STARLINK-1401 2.7 09:32:45 10° WNW 09:34:56 37° SW 09:37:15 10° SSE
STARLINK-1393 2.7 09:32:45 10° WNW 09:34:56 37° SW 09:37:15 10° SSE
STARLINK-1396 2.7 09:32:45 10° WNW 09:34:56 37° SW 09:37:16 10° SSE
STARLINK-1397 2.7 09:32:45 10° WNW 09:34:57 37° SW 09:37:16 10° SSE
STARLINK-1453 2.7 09:32:45 10° WNW 09:34:57 37° SW 09:37:16 10° SSE
STARLINK-1404 2.7 09:32:47 10° WNW 09:34:58 37° SW 09:37:17 10° SSE
STARLINK-1417 2.7 09:32:48 10° WNW 09:34:59 37° SW 09:37:19 10° SSE
STARLINK-1402 2.7 09:32:48 10° WNW 09:34:59 37° SW 09:37:19 10° SSE
STARLINK-1413 2.7 09:32:49 10° WNW 09:35:01 36° SW 09:37:19 10° SSE
STARLINK-1406 2.7 09:32:50 10° WNW 09:35:01 36° SW 09:37:20 10° SSE
STARLINK-1440 2.7 09:32:51 10° WNW 09:35:02 36° SW 09:37:22 10° SSE
STARLINK-1414 2.7 09:32:50 10° WNW 09:35:04 37° SW 09:37:24 10° SSE
STARLINK-1445 2.7 09:32:52 10° WNW 09:35:04 36° SW 09:37:22 10° SSE
STARLINK-1443 2.7 09:32:53 10° WNW 09:35:04 36° SW 09:37:24 10° SSE
STARLINK-1454 2.7 09:32:53 10° WNW 09:35:05 36° SW 09:37:24 10° SSE
STARLINK-1457 2.7 09:32:54 10° WNW 09:35:05 36° SW 09:37:24 10° SSE
STARLINK-1416 2.7 09:32:52 10° WNW 09:35:06 37° SW 09:37:27 10° SSE
STARLINK-1408 2.7 09:32:53 10° WNW 09:35:06 37° SW 09:37:27 10° SSE
STARLINK-1456 2.7 09:32:55 10° WNW 09:35:06 36° SW 09:37:25 10° SSE
STARLINK-1451 2.7 09:32:55 10° WNW 09:35:06 36° SW 09:37:26 10° SSE
STARLINK-1442 2.7 09:32:56 10° WNW 09:35:08 36° SW 09:37:27 10° SSE
STARLINK-1436 (VISORSAT) 2.7 09:32:55 10° WNW 09:35:09 37° SW 09:37:30 10° SSE
STARLINK-1419 2.7 09:32:56 10° WNW 09:35:10 37° SW 09:37:31 10° SSE
STARLINK-1405 2.7 09:32:59 10° WNW 09:35:10 36° SW 09:37:30 10° SSE
STARLINK-1421 2.7 09:33:00 10° WNW 09:35:11 36° SW 09:37:30 10° SSE
STARLINK-1398 2.7 09:32:57 10° WNW 09:35:11 37° SW 09:37:33 10° SSE
STARLINK-1410 2.7 09:33:00 10° WNW 09:35:11 36° SW 09:37:30 10° SSE
STARLINK-1400 2.7 09:33:00 10° WNW 09:35:11 36° SW 09:37:31 10° SSE
STARLINK-1407 2.7 09:33:01 10° WNW 09:35:12 36° SW 09:37:31 10° SSE
STARLINK-1439 2.7 09:33:01 10° WNW 09:35:12 36° SW 09:37:32 10° SSE
STARLINK-1409 2.7 09:33:02 10° WNW 09:35:13 36° SW 09:37:32 10° SSE
STARLINK-1351 2.7 09:33:03 10° WNW 09:35:14 36° SW 09:37:33 10° SSE
STARLINK-1370 2.7 09:33:03 10° WNW 09:35:14 36° SW 09:37:33 10° SSE
STARLINK-1422 2.7 09:33:01 10° WNW 09:35:14 37° SW 09:37:36 10° SSE
STARLINK-1418 2.7 09:33:03 10° WNW 09:35:14 36° SW 09:37:34 10° SSE
STARLINK-1434 2.7 09:33:04 10° WNW 09:35:15 36° SW 09:37:34 10° SSE
STARLINK-1420 2.7 09:33:01 10° WNW 09:35:15 37° SW 09:37:37 10° SSE
STARLINK-1403 2.7 09:33:05 10° WNW 09:35:16 36° SW 09:37:35 10° SSE
STARLINK-1460 2.7 09:33:03 10° WNW 09:35:17 37° SW 09:37:39 10° SSE
STARLINK-1433 2.7 09:33:06 10° WNW 09:35:17 36° SW 09:37:36 10° SSE
STARLINK-1411 2.7 09:33:07 10° WNW 09:35:19 36° SW 09:37:38 10° SSE
STARLINK-1438 2.7 09:33:08 10° WNW 09:35:20 36° SW 09:37:38 10° SSE
STARLINK-1458 2.7 09:33:07 10° WNW 09:35:21 37° SW 09:37:42 10° SSE
STARLINK-1423 2.7 09:33:10 10° WNW 09:35:24 37° SW 09:37:45 10° SSE
STARLINK-1446 2.7 09:33:10 10° WNW 09:35:25 37° SW 09:37:46 10° SSE
STARLINK-1437 2.7 09:33:12 10° WNW 09:35:26 37° SW 09:37:47 10° SSE
STARLINK-1447 2.7 09:33:14 10° WNW 09:35:28 37° SW 09:37:50 10° SSE
STARLINK-1455 2.7 09:33:15 10° WNW 09:35:29 37° SW 09:37:50 10° SSE
STARLINK-1441 2.7 09:33:16 10° WNW 09:35:30 37° SW 09:37:51 10° SSE
STARLINK-1448 2.7 09:33:19 10° WNW 09:35:33 37° SW 09:37:55 10° SSE
STARLINK-1449 2.7 09:33:20 10° WNW 09:35:35 37° SW 09:37:56 10° SSE
STARLINK-1412 2.7 09:33:29 10° WNW 09:35:43 36° SW 09:38:05 10° SSE
Cosmos 1151 Rocket 3.4 09:31:48 10° NNW 09:36:00 45° W 09:40:09 10° SSW
deb Chang Zheng 4 3.6 09:32:14 10° N 09:36:28 66° WNW 09:40:40 10° SSW
CZ-2C R/B 4.1 09:34:48 10° NNW 09:37:50 23° WNW 09:40:32 12° WSW
STARLINK-1031 3.8 09:34:32 14° SW 09:38:02 64° NW 09:42:08 10° NE
SWARM A 4.4 09:35:29 10° NNW 09:38:44 49° W 09:41:56 10° SSW
SAR-Lupe-4 3.5 09:36:50 10° S 09:40:25 84° WSW 09:44:01 10° NNW
Cosmos 2333 Rocket 3.0 09:37:21 12° SW 09:42:07 36° WNW 09:47:19 10° N
STARLINK-1024 3.9 09:39:18 12° WSW 09:43:01 56° NW 09:47:05 10° NE
Cosmos 1515 Rocket 3.5 09:40:24 10° NNW 09:44:43 68° W 09:49:00 10° S
STARLINK-1035 4.1 09:44:06 11° WSW 09:48:00 50° NW 09:52:02 10° NNE
Cosmos 2219 Rocket 3.1 09:44:10 10° SW 09:49:09 33° WNW 09:54:11 10° N
Lacrosse 5 rocket 2.2 09:45:32 10° WSW 09:49:17 34° NW 09:52:52 10° NNE
Sich 1 4.3 09:46:01 10° SSE 09:50:04 42° E 09:54:07 10° NNE
Cosmos 2112 Rocket 4.1 09:46:52 10° SSW 09:52:03 68° WNW 09:57:21 10° N
Cosmos 1484 Rocket 4.4 09:49:02 10° NNE 09:52:45 37° E 09:56:28 10° SSE
STARLINK-1032 4.2 09:49:00 10° WSW 09:52:58 45° NW 09:56:58 10° NNE
BREEZE-M DEB (TANK) 3.9 09:48:52 10° WSW 09:53:25 33° NW 09:56:05 10° NE
Meteor 1-26 Rocket 4.4 09:48:13 10° NNW 09:54:02 62° W 09:59:56 10° S
Cosmos 1689 Rocket 3.9 09:52:18 10° SE 09:55:02 35° ENE 09:57:46 10° N
SAR-Lupe-1 4.2 09:52:37 10° S 09:56:04 53° W 09:59:34 10° NNW
STARLINK-1037 4.4 09:52:27 10° WSW 09:56:22 41° NW 10:00:18 10° NNE
STARLINK-29 3.1 09:54:06 10° NW 09:57:10 47° SW 10:00:12 10° SSE
STARLINK-1011 4.4 09:54:03 10° WSW 09:57:57 41° NW 10:01:53 10° NNE
Cosmos 2344 3.8 09:50:46 10° SW 09:58:19 57° NW 10:05:52 10° NNE
Cosmos 1633 3.4 09:55:07 10° SW 09:58:21 32° W 10:01:37 10° NNW
